Flag for Spain Weather past 2 weeks in Valladolid, Spain

Now
64 °F

Sunny.


Feels Like: 64 °F
Forecast: 56 / 78 °F
Wind: 13 mph from East

Location: Valladolid / Villanubla

Current Time: Jul 30, 2015 at 11:14:22 AM

Latest Report: Jul 30, 2015 at 10:30 AM


Visibility: 10 mi

Pressure: 29.98 "Hg (27.58 "Hg at 712m altitude)

Humidity: 68%

Dew point: 54 °F

Location of ValladolidLocation

Historic Weather in Valladolid — Graph

°F

Valladolid temperature yesterday

Maximum temperature yesterday: 86 °F (at 5:00 PM)
Minimum temperature yesterday: 54 °F (at 7:30 AM)
Average temperature yesterday: 75 °F

Past Weeks' High & Low Weather Summary

 TemperatureHumidityPressure
High97 °F (Jul 15, 4:30 PM)100% (Jul 28, 7:30 AM)30.15 "Hg (Jul 28, 7:30 AM)
Low52 °F (Jul 28, 7:00 AM)9% (Jul 15, 5:30 PM)29.95 "Hg (Jul 24, 6:00 PM)
Average78 °F41%30.06 "Hg
* Reported Jul 15 10:00 AM — Jul 30 10:00 AM, Valladolid, Weather by CustomWeather, © 2015

Note: Actual official high and low records may vary slightly from our data, if they occured in-between our weather recording intervals... More about our weather records

Advertising

Valladolid weather history for previous 24 hours

 ConditionsComfort  
Time TempWeatherWind HumidityBarometerVisibility
10:00 AM
Thu, Jul 30
63 °FPassing clouds.12 mph73%29.98 "HgN/A
9:30 AM61 °FSunny.15 mph77%29.98 "Hg10 mi
9:00 AM61 °FPassing clouds.14 mph77%29.98 "HgN/A
8:30 AM59 °FPassing clouds.14 mph82%29.98 "HgN/A
8:00 AM59 °FPassing clouds.13 mph77%29.98 "HgN/A
7:30 AM59 °FPassing clouds.12 mph77%29.98 "HgN/A
7:00 AM59 °FClear.12 mph77%29.98 "Hg10 mi
11:00 PM
Wed, Jul 29
68 °FClear.14 mph69%30.01 "Hg10 mi
10:30 PM70 °FSunny.14 mph64%29.98 "Hg10 mi
10:00 PM72 °FSunny.13 mph61%29.98 "Hg10 mi
9:30 PM73 °FSunny.15 mph57%29.95 "Hg10 mi
9:00 PM77 °FSunny.15 mph44%29.95 "Hg10 mi
8:30 PM82 °FPassing clouds.3 mph32%29.95 "HgN/A
8:00 PM82 °FPassing clouds.5 mph32%29.95 "HgN/A
7:30 PM84 °FSunny.No wind31%29.95 "Hg10 mi
7:00 PM82 °FPassing clouds.8 mph32%29.95 "HgN/A
6:30 PM86 °FSunny.6 mph27%29.95 "Hg10 mi
6:00 PM86 °FPassing clouds.8 mph27%29.95 "HgN/A
5:30 PM86 °FPassing clouds.13 mph27%29.98 "HgN/A
5:00 PM86 °FPassing clouds.6 mph27%29.98 "HgN/A
4:30 PM84 °FPassing clouds.12 mph29%29.98 "HgN/A
4:00 PM84 °FPassing clouds.8 mph33%29.98 "HgN/A
3:30 PM82 °FPassing clouds.7 mph35%30.01 "HgN/A
3:00 PM82 °FPassing clouds.8 mph32%30.01 "HgN/A
2:30 PM81 °FPassing clouds.6 mph37%30.01 "HgN/A
2:00 PM81 °FPassing clouds.5 mph37%30.01 "HgN/A
1:30 PM79 °FPassing clouds.5 mph42%30.01 "HgN/A
1:00 PM79 °FSunny.7 mph39%30.04 "Hg10 mi
12:30 PM77 °FPassing clouds.2 mph44%30.04 "HgN/A
12:00 PM75 °FPassing clouds.3 mph47%30.04 "HgN/A
11:30 AM73 °FPassing clouds.5 mph53%30.04 "HgN/A
11:00 AM73 °FPassing clouds.8 mph53%30.04 "HgN/A
Weather by CustomWeather, © 2015

See weather overviewHow to use our weather pages